Simultaneous Nadir Overpasses (SNOs) Predictions

Prediction of SNOs between METOP-A and TERRA Satellite Orbit:

Table of predicted SNOs for the next 14.0 days since TLE Epoch: 2/6/2021
Index Date (METOP-A) Time (METOP-A) Lat,Lon (METOP-A) SZA (METOP-A ) Date (TERRA) Time (TERRA) Lat,Lon (TERRA) SZA (TERRA ) Distance(km) Time Diff (sec)
1 02/06/2021 15:48:50 -81.35, 170.27 80.93 02/06/2021 15:50:00 -81.35, 170.20 80.91 1.16 70
2 02/06/2021 16:39:31 81.35, -22.47 99.06 02/06/2021 16:39:27 81.34, -22.42 99.05 1.73 4
3 02/09/2021 11:23:12 -81.35,-123.25 81.82 02/09/2021 11:24:13 -81.36,-123.29 81.79 1.38 61
4 02/09/2021 12:13:53 81.35, 44.00 98.17 02/09/2021 12:13:40 81.34, 44.06 98.16 1.30 13
5 02/12/2021 06:57:34 -81.36, -57.16 82.76 02/12/2021 06:58:26 -81.34, -57.19 82.76 1.80 52
6 02/12/2021 07:48:14 81.35, 110.46 97.25 02/12/2021 07:47:52 81.34, 110.51 97.25 0.92 22
7 02/15/2021 02:31:56 -81.35, 9.30 83.71 02/15/2021 02:32:39 -81.34, 9.26 83.70 1.42 43
8 02/15/2021 03:22:36 81.34, 176.91 96.31 02/15/2021 03:22:05 81.34, 176.93 96.30 0.39 31
9 02/17/2021 22:06:18 -81.35, 75.76 84.68 02/17/2021 22:06:52 -81.34, 75.68 84.68 1.58 34



Historial Predications of SNOs between METOP-A and TERRA
